| time (UTC) | temp F | wind direction | speed MPH | gust MPH | rain 1hr in | rain 24hr in | rain mn in | humidity % | barometer mb |
| 20260906040057 | 49 | 0 | 0.0 | 0.0 | 0.00 | 0.14 | 0.00 | 81 | 1024.0 |
| 20260906034612 | 50 | 0 | 0.0 | 0.0 | 0.00 | 0.14 | 0.00 | 81 | 1023.9 |
| 20260906033048 | 50 | 0 | 0.0 | 0.0 | 0.00 | 0.14 | 0.00 | 81 | 1024.1 |
| 20260906031552 | 50 | 0 | 0.0 | 0.0 | 0.00 | 0.14 | 0.00 | 81 | 1024.0 |
| 20260906030056 | 51 | 0 | 0.0 | 0.0 | 0.00 | 0.14 | 0.00 | 81 | 1023.7 |
| 20260906024551 | 51 | 0 | 0.0 | 0.0 | 0.00 | 0.14 | 0.00 | 81 | 1023.7 |
| 20260906023050 | 51 | 0 | 0.0 | 0.0 | 0.00 | 0.14 | 0.00 | 81 | 1023.7 |
| 20260906021552 | 51 | 0 | 0.0 | 0.0 | 0.00 | 0.14 | 0.00 | 81 | 1023.8 |
| 20260906020105 | 52 | 0 | 0.0 | 0.0 | 0.00 | 0.14 | 0.00 | 81 | 1023.7 |
| 20260906014552 | 52 | 0 | 0.0 | 0.0 | 0.00 | 0.14 | 0.00 | 80 | 1023.8 |
| 20260906013104 | 52 | 0 | 0.0 | 0.0 | 0.00 | 0.14 | 0.00 | 81 | 1023.6 |
| 20260906011555 | 53 | 0 | 0.0 | 0.0 | 0.00 | 0.14 | 0.00 | 81 | 1023.5 |
| 20260906010055 | 53 | 0 | 0.0 | 0.0 | 0.00 | 0.14 | 0.00 | 80 | 1023.5 |
| 20260906004549 | 53 | 0 | 0.0 | 0.0 | 0.00 | 0.14 | 0.00 | 80 | 1023.5 |
| 20260906003056 | 53 | 0 | 0.0 | 0.0 | 0.00 | 0.14 | 0.00 | 80 | 1023.6 |
| 20260906001553 | 53 | 0 | 0.0 | 0.0 | 0.00 | 0.14 | 0.00 | 80 | 1023.6 |
| 20260906000100 | 54 | 0 | 0.0 | 0.0 | 0.00 | 0.14 | 0.00 | 80 | 1023.6 |
| 20260905234558 | 54 | 0 | 0.0 | 0.0 | 0.00 | 0.14 | 0.00 | 80 | 1023.5 |
| 20260905233051 | 54 | 0 | 0.0 | 0.0 | 0.00 | 0.14 | 0.00 | 80 | 1023.6 |
| 20260905231555 | 55 | 0 | 0.0 | 0.0 | 0.00 | 0.14 | 0.00 | 80 | 1023.6 |
| 20260905230051 | 55 | 0 | 0.0 | 0.0 | 0.00 | 0.14 | 0.00 | 80 | 1023.6 |
| 20260905224553 | 55 | 0 | 0.0 | 0.0 | 0.00 | 0.14 | 0.00 | 79 | 1023.6 |
| 20260905223052 | 56 | 0 | 0.0 | 0.0 | 0.00 | 0.14 | 0.00 | 79 | 1023.6 |
| 20260905221555 | 56 | 0 | 0.0 | 0.0 | 0.00 | 0.14 | 0.00 | 79 | 1023.5 |
| 20260905214558 | 57 | 0 | 0.0 | 0.0 | 0.00 | 0.14 | 0.14 | 78 | 1023.5 |
| 20260905213052 | 58 | 0 | 0.0 | 0.0 | 0.00 | 0.14 | 0.14 | 78 | 1023.3 |
| 20260905211553 | 58 | 0 | 0.0 | 0.0 | 0.00 | 0.14 | 0.14 | 77 | 1023.4 |
| 20260905210107 | 59 | 0 | 0.0 | 0.0 | 0.00 | 0.14 | 0.14 | 76 | 1023.2 |
| 20260905204550 | 59 | 0 | 0.0 | 0.0 | 0.00 | 0.14 | 0.14 | 76 | 1023.1 |
| 20260905203107 | 60 | 0 | 0.0 | 0.0 | 0.00 | 0.14 | 0.14 | 75 | 1023.1 |
| 20260905201552 | 61 | 0 | 0.0 | 0.0 | 0.00 | 0.14 | 0.14 | 75 | 1023.1 |
| 20260905200051 | 61 | 0 | 0.0 | 0.0 | 0.00 | 0.14 | 0.14 | 74 | 1022.9 |
| 20260905194548 | 62 | 0 | 0.0 | 0.0 | 0.00 | 0.14 | 0.14 | 74 | 1023.0 |
| 20260905193055 | 62 | 0 | 0.0 | 2.0 | 0.00 | 0.14 | 0.14 | 74 | 1022.7 |
| 20260905191550 | 63 | 261 | 2.0 | 6.0 | 0.00 | 0.14 | 0.14 | 73 | 1022.5 |
| 20260905190052 | 64 | 0 | 0.0 | 0.0 | 0.00 | 0.14 | 0.14 | 71 | 1022.4 |
| 20260905184602 | 64 | 0 | 0.0 | 3.0 | 0.00 | 0.14 | 0.14 | 69 | 1022.2 |
| 20260905183055 | 65 | 0 | 0.0 | 2.0 | 0.00 | 0.14 | 0.14 | 69 | 1021.9 |
| 20260905181549 | 65 | 0 | 0.0 | 0.0 | 0.00 | 0.14 | 0.14 | 67 | 1021.7 |
| 20260905180100 | 66 | 0 | 0.0 | 1.0 | 0.00 | 0.14 | 0.14 | 66 | 1021.2 |
| 20260905174555 | 66 | 0 | 0.0 | 2.0 | 0.00 | 0.14 | 0.14 | 65 | 1020.9 |
| 20260905173048 | 67 | 0 | 0.0 | 7.0 | 0.00 | 0.14 | 0.14 | 64 | 1020.8 |
| 20260905171624 | 67 | 0 | 0.0 | 7.0 | 0.00 | 0.14 | 0.14 | 63 | 1020.6 |
| 20260905164552 | 68 | 281 | 0.0 | 10.0 | 0.00 | 0.14 | 0.14 | 61 | 1020.6 |
| 20260905163058 | 70 | 229 | 2.0 | 11.0 | 0.00 | 0.14 | 0.14 | 63 | 1020.6 |
| 20260905161554 | 71 | 279 | 3.0 | 15.0 | 0.00 | 0.14 | 0.14 | 64 | 1020.3 |
| 20260905154630 | 73 | 0 | 1.0 | 9.0 | 0.00 | 0.13 | 0.13 | 62 | 1020.1 |
| 20260905153054 | 73 | 165 | 1.0 | 14.0 | 0.00 | 0.13 | 0.13 | 59 | 1020.1 |
| 20260905151551 | 73 | 360 | 0.0 | 10.0 | 0.00 | 0.13 | 0.13 | 58 | 1020.2 |
| 20260905150059 | 73 | 0 | 3.0 | 12.0 | 0.00 | 0.13 | 0.13 | 56 | 1020.3 |
| 20260905144559 | 73 | 0 | 1.0 | 14.0 | 0.00 | 0.13 | 0.13 | 55 | 1020.4 |
| 20260905143102 | 72 | 242 | 9.0 | 10.0 | 0.00 | 0.13 | 0.13 | 55 | 1020.5 |
| 20260905141558 | 72 | 271 | 3.0 | 14.0 | 0.00 | 0.13 | 0.13 | 58 | 1020.5 |
| 20260905140100 | 72 | 237 | 7.0 | 15.0 | 0.00 | 0.13 | 0.13 | 57 | 1020.5 |
| 20260905134601 | 71 | 360 | 5.0 | 16.0 | 0.00 | 0.13 | 0.13 | 55 | 1020.6 |
| 20260905133102 | 71 | 360 | 10.0 | 0.0 | 0.00 | 0.13 | 0.13 | 55 | 1020.6 |
| 20260905131557 | 71 | 360 | 5.0 | 13.0 | 0.00 | 0.13 | 0.13 | 57 | 1020.7 |
| 20260905130053 | 70 | 0 | 6.0 | 15.0 | 0.00 | 0.13 | 0.13 | 62 | 1020.6 |
| 20260905124550 | 69 | 360 | 4.0 | 13.0 | 0.00 | 0.13 | 0.13 | 64 | 1020.6 |
| 20260905123048 | 68 | 276 | 9.0 | 14.0 | 0.00 | 0.13 | 0.13 | 66 | 1020.7 |
| 20260905121555 | 68 | 360 | 6.0 | 15.0 | 0.00 | 0.13 | 0.13 | 69 | 1020.7 |
| 20260905120055 | 67 | 293 | 0.0 | 11.0 | 0.00 | 0.13 | 0.13 | 72 | 1020.6 |
| 20260905114559 | 65 | 360 | 5.0 | 13.0 | 0.00 | 0.13 | 0.13 | 77 | 1020.9 |
| 20260905113053 | 64 | 360 | 1.0 | 0.0 | 0.00 | 0.13 | 0.13 | 80 | 1020.8 |
| 20260905111622 | 63 | 0 | 2.0 | 4.0 | 0.00 | 0.13 | 0.13 | 81 | 1020.9 |
| 20260905110056 | 62 | 0 | 0.0 | 6.0 | 0.00 | 0.13 | 0.13 | 83 | 1020.9 |
| 20260905104607 | 61 | 0 | 0.0 | 3.0 | 0.00 | 0.13 | 0.13 | 83 | 1020.7 |
| 20260905103055 | 60 | 0 | 0.0 | 2.0 | 0.03 | 0.13 | 0.13 | 84 | 1020.7 |
| 20260905101554 | 60 | 0 | 0.0 | 4.0 | 0.06 | 0.12 | 0.12 | 83 | 1020.6 |
| 20260905100052 | 60 | 0 | 0.0 | 2.0 | 0.06 | 0.12 | 0.12 | 85 | 1020.6 |
| 20260905094652 | 59 | 0 | 0.0 | 7.0 | 0.07 | 0.12 | 0.12 | 84 | 1020.5 |
| 20260905093103 | 59 | 0 | 0.0 | 4.0 | 0.05 | 0.10 | 0.10 | 84 | 1020.6 |
| 20260905091557 | 58 | 0 | 0.0 | 4.0 | 0.02 | 0.06 | 0.06 | 83 | 1020.7 |
| 20260905090057 | 58 | 0 | 0.0 | 5.0 | 0.03 | 0.06 | 0.06 | 83 | 1020.4 |
| 20260905084603 | 58 | 165 | 1.0 | 5.0 | 0.03 | 0.05 | 0.05 | 83 | 1020.1 |
| 20260905083049 | 58 | 0 | 0.0 | 8.0 | 0.03 | 0.04 | 0.04 | 82 | 1020.7 |
| 20260905081549 | 59 | 0 | 0.0 | 6.0 | 0.02 | 0.03 | 0.03 | 80 | 1020.5 |
| 20260905080110 | 60 | 0 | 0.0 | 3.0 | 0.00 | 0.02 | 0.02 | 77 | 1020.1 |
| 20260905074601 | 60 | 0 | 0.0 | 0.0 | 0.00 | 0.01 | 0.01 | 75 | 1020.0 |
| 20260905073107 | 61 | 0 | 0.0 | 0.0 | 0.00 | 0.01 | 0.01 | 76 | 1019.7 |
| 20260905071553 | 60 | 0 | 0.0 | 0.0 | 0.01 | 0.01 | 0.01 | 78 | 1019.6 |
| 20260905070100 | 60 | 0 | 0.0 | 0.0 | 0.01 | 0.01 | 0.01 | 77 | 1019.6 |
| 20260905064554 | 60 | 0 | 0.0 | 0.0 | 0.00 | 0.00 | 0.00 | 75 | 1019.6 |
| 20260905063050 | 60 | 0 | 0.0 | 0.0 | 0.00 | 0.00 | 0.00 | 74 | 1019.5 |
| 20260905061602 | 60 | 0 | 0.0 | 0.0 | 0.00 | 0.00 | 0.00 | 72 | 1019.2 |
| 20260905060104 | 60 | 0 | 0.0 | 0.0 | 0.00 | 0.00 | 0.00 | 72 | 1018.6 |
| 20260905054605 | 61 | 0 | 0.0 | 0.0 | 0.00 | 0.00 | 0.00 | 70 | 1018.5 |
| 20260905053054 | 61 | 0 | 0.0 | 0.0 | 0.00 | 0.00 | 0.00 | 69 | 1018.9 |
| 20260905051604 | 61 | 0 | 0.0 | 0.0 | 0.00 | 0.00 | 0.00 | 67 | 1018.8 |
| 20260905050057 | 62 | 0 | 0.0 | 1.0 | 0.00 | 0.00 | 0.00 | 64 | 1019.1 |
| 20260905044557 | 62 | 360 | 2.0 | 9.0 | 0.00 | 0.00 | 0.00 | 62 | 1018.8 |
| 20260905043055 | 63 | 360 | 2.0 | 13.0 | 0.00 | 0.00 | 0.00 | 63 | 1018.3 |
| 20260905041556 | 63 | 41 | 1.0 | 6.0 | 0.00 | 0.00 | 0.00 | 65 | 1018.1 |